STARLINK-5745, 55575

Orbit data source: Space-Track

STARLINK-5745, 55575 is a payload satellite owned by SpaceX/Seattle (US) in LEO that was launched on Sun, 12 Feb 2023 UTC via an FALCON 9 launch vehicle from the Air Force Eastern Test Range (AFETR). Payload-class satellites include a variety of spacecraft equipped with specific instruments for various scientific and technological missions. These include communications satellites like Starlink; space stations such as the ISS; scientific satellites like the Hubble; Earth observation satellites from companies like Planet Labs, Umbra, and HawkEye 360; GPS; miniature CubeSats for education and research; and military/defense satellites.

Loading next visibility...
Identifier
55575, 2023-020G
Orbit
LEO
Country
Flag of USUS
Related business
Manufacturer
SpaceX/Seattle
Mission
Operational spacecraft
Bus & Motor
STARLINK, Unknown motor
Mass
305 kg wet, ~290 kg dry
Launch date (UTC)
2023-02-12 (3 years ago)
Launch vehicle
FALCON 9
Launch site
Air Force Eastern Test Range (AFETR)
Object type
Payload
Rocket body
Debris
Shape & HBR
Unknown shape, 10.1 m
Radar Cross Section
Large (>1 m²)

Expand to show TLE details & history
Last TLE update: 16 hours ago

TLE from 16 hours ago
0 STARLINK-5745
1 55575U 23020G   25340.53366159  .00000088  00000-0  21584-4 0  9996
2 55575  43.0017 151.0450 0000932 270.5921  89.4815 15.02534061154901
Epoch: 2025-12-06T12:48Z
TLE epoch observation values (Epoch: 2025-12-06T12:48:28.361Z)
Latitude
0.00002°
Longitude
-116.63318°
Altitude
558.858 km
Speed
7.584 km/s
True Right ascension
10h 04m 10s
True Declination
0° 00' 00"
Sunlit
Object was in daylight at epoch
Visualization orbit readout
Latitude
Unknown
Longitude
Unknown
Altitude
Unknown
Speed
Unknown
Apparent Right ascension
Unknown
Apparent Declination
Unknown
Sunlit
N/A
Visualization observer readout
Local Sidereal Time
03:11:24
Azimuth
Unknown
Elevation
Unknown
Doppler factor
Unknown
Orbital elements
Apogee altitude
561.656 km
Perigee altitude
560.362 km
Semi-major axis
6,939.146 km
Eccentricity
0.00009
Inclination
43.0017°
RAAN
151.045°
Arg. of periapsis
270.5921°
True anomaly
89.49218°
Mean anomaly
89.4815°
Eccentric anomaly
89.48684°
Mean motion
3.75478 °/min
Orbital period
95.88 mins
BSTAR
0.000021584
Loading maneuver chart data...
Computing Atmospheric mass density...
Loading historical data...
Loading historical data...
Loading historical data...
Loading historical data...
Loading historical data...
Loading historical data...
Loading historical data...

Documentation

Showing up to 5 results
|